Hourly Data Report for May 27, 2012

GANDER INTL A
NEWFOUNDLAND

48°56'13.000" N
54°34'05.000" W
151.20 m
8401703
71803
YQX

Download Data

Hourly Data (May 2012)
Hourly Data Report for May 27, 2012
TIME
LST
Temp Definition
°C
Dew Point Definition
°C
Rel Hum Definition
%
Precip. Amount Definition
mm

Wind Dir Definition
10's deg

Wind Spd Definition
km/h
Visibility Definition
km
Stn Press Definition
kPa
Hmdx Definition


Wind Chill Definition


Weather Definition


00:30 11.2 9.5 89   27 23 10.0 98.95     LegendNANA
01:30 10.2 8.2 87   25 16 10.0 98.95     LegendNANA
02:30 9.7 5.3 74   27 25 10.0 99.01     Mainly Clear
03:30 8.3 4.0 74   28 20 10.0 99.05     LegendNANA
04:30 6.8 3.1 77   30 21 10.0 99.12     LegendNANA
05:30 7.7 2.8 71   30 24 10.0 99.23     Mostly Cloudy
06:30 6.8 1.7 70   31 28 10.0 99.25     LegendNANA
07:30 8.7 0.9 58   33 30 10.0 99.29     LegendNANA
08:30 8.7 0.9 58   33 38 10.0 99.36     Mainly Clear
09:30 9.0 1.5 59   34 27 10.0 99.39     LegendNANA
10:30 8.3 1.0 60   35 26 10.0 99.45     LegendNANA
11:30 8.9 1.1 58   32 22 10.0 99.45     Mostly Cloudy
12:30 9.9 0.5 52   33 18 10.0 99.47     LegendNANA
13:30 9.6 0.0 51   33 16 10.0 99.45     LegendNANA
14:30 9.4 0.9 55   3 20 10.0 99.46     Mostly Cloudy
15:30 10.0 0.6 52   2 20 10.0 99.49     LegendNANA
16:30 9.2 0.2 53   1 21 10.0 99.53     LegendNANA
17:30 8.4 0.2 56   1 10 10.0 99.57     Mainly Clear
18:30 6.9 -0.8 58   2 14 10.0 99.61     LegendNANA
19:30 5.5 -1.4 61   3 10 10.0 99.67     LegendNANA
20:30 3.4 -1.4 71   3 10 10.0 99.70     Mainly Clear
21:30 2.2 -0.7 81   9 10 10.0 99.74     LegendNANA
22:30 2.0 -0.3 85   13 11 10.0 99.73     LegendNANA
23:30 1.9 0.0 87   17 13 10.0 99.70     Mostly Cloudy

Notes on Data Quality.

Legend

  • E = Estimated
  • M = Missing
  • NA = Not Available*
  • [empty] = Indicates an unobserved value
Date modified: